Flag for United Kingdom Weather past 2 weeks in Edinburgh, Scotland, United Kingdom

Now
57 °F

Fog.


Feels Like: 56 °F
Forecast: 53 / 73 °F
Wind: 6 mph from Northeast

Location: Edinburgh Airport

Current Time: Jul 24, 2014 at 9:59:36 PM

Latest Report: Jul 24, 2014 at 9:20 PM


Visibility: 0 mi

Pressure: 30.18 "Hg

Humidity: 100%

Dew point: 57 °F

Location of EdinburghLocation

Historic Weather in Edinburgh — Graph

°F

Edinburgh temperature yesterday

Maximum temperature yesterday: 64 °F (at 11:50 AM)
Minimum temperature yesterday: 57 °F (at 3:50 AM)
Average temperature yesterday: 60 °F

Past Weeks' High & Low Weather Summary

 TemperatureHumidityPressure
High75 °F (Jul 22, 2:50 PM)100% (Jul 10, 1:50 AM)30.30 "Hg (Jul 10, 1:50 AM)
Low45 °F (Jul 10, 3:50 AM)46% (Jul 10, 11:20 AM)29.65 "Hg (Jul 14, 5:50 PM)
Average61 °F81%30.00 "Hg
* Reported Jul 9 8:20 PM — Jul 24 8:50 PM, Edinburgh, Weather by CustomWeather, © 2014

Note: Actual official high and low records may vary slightly from our data, if they occured in-between our weather recording intervals... More about our weather records

Advertising

Edinburgh weather history for previous 24 hours

 ConditionsComfort  
Time TempWeatherWind HumidityBarometerVisibility
8:50 PM
Jul 24
57 °FFog.10 mph100%30.18 "Hg1 mi
8:20 PM59 °FLight fog.8 mph94%30.18 "Hg1 mi
7:50 PM63 °FFog.10 mph83%30.15 "HgN/A
7:20 PM64 °FSunny.6 mph83%30.15 "Hg10 mi
6:50 PM64 °FSunny.9 mph83%30.15 "Hg10 mi
6:20 PM66 °FSunny.8 mph78%30.15 "Hg10 mi
5:50 PM68 °FSunny.10 mph69%30.18 "Hg10 mi
5:20 PM68 °FSunny.9 mph73%30.18 "Hg10 mi
4:50 PM68 °FSunny.10 mph69%30.18 "Hg10 mi
4:20 PM68 °FSunny.13 mph69%30.18 "Hg10 mi
3:50 PM68 °FPassing clouds.9 mph73%30.18 "HgN/A
3:20 PM68 °FPassing clouds.10 mph73%30.18 "HgN/A
2:50 PM68 °FPassing clouds.13 mph73%30.18 "HgN/A
2:20 PM70 °FSunny.12 mph73%30.21 "Hg10 mi
1:50 PM68 °FSunny.9 mph78%30.21 "Hg10 mi
1:20 PM64 °FSunny.9 mph83%30.21 "Hg10 mi
12:50 PM63 °FScattered clouds.9 mph88%30.21 "HgN/A
12:20 PM63 °FClear.8 mph88%30.24 "HgN/A
11:50 AM61 °FLow clouds.8 mph94%30.24 "HgN/A
11:20 AM61 °FLow clouds.8 mph88%30.24 "Hg5 mi
10:50 AM59 °FLow clouds.7 mph94%30.24 "Hg5 mi
10:20 AM59 °FFog.7 mph94%30.24 "Hg3 mi
9:50 AM57 °FLow clouds.7 mph100%30.24 "Hg4 mi
9:20 AM57 °FFog.7 mph100%30.24 "Hg1 mi
8:50 AM57 °FFog.7 mph100%30.24 "Hg1 mi
8:20 AM57 °FFog.7 mph100%30.21 "Hg1 mi
7:50 AM57 °FFog.8 mph100%30.21 "Hg1 mi
7:20 AM57 °FFog.8 mph100%30.21 "Hg1 mi
6:50 AM57 °FFog.8 mph100%30.21 "Hg1 mi
6:20 AM57 °FFog.9 mph100%30.21 "Hg2 mi
5:50 AM57 °FFog.7 mph100%30.21 "Hg2 mi
5:20 AM57 °FFog.8 mph100%30.21 "Hg2 mi
4:50 AM57 °FFog.6 mph100%30.21 "Hg1 mi
4:20 AM57 °FFog.8 mph100%30.24 "Hg1 mi
3:50 AM57 °FFog.6 mph100%30.24 "Hg1 mi
3:20 AM57 °FFog.8 mph100%30.24 "Hg1 mi
2:50 AM57 °FFog.7 mph100%30.24 "Hg1 mi
2:20 AM57 °FFog.8 mph100%30.24 "Hg1 mi
1:50 AM57 °FFog.7 mph100%30.24 "Hg1 mi
1:20 AM57 °FFog.8 mph100%30.24 "Hg0 mi
12:50 AM57 °FFog.8 mph100%30.24 "Hg0 mi
12:20 AM57 °FFog.10 mph100%30.24 "Hg0 mi
11:50 PM
Jul 23
59 °FFog.9 mph94%30.24 "Hg1 mi
11:20 PM59 °FFog.8 mph94%30.24 "Hg1 mi
10:50 PM59 °FFog.9 mph94%30.24 "Hg2 mi
10:20 PM59 °FFog.10 mph94%30.24 "Hg3 mi
9:50 PM59 °FFog.10 mph94%30.24 "Hg3 mi
9:20 PM59 °FLow clouds.10 mph94%30.24 "Hg5 mi
Weather by CustomWeather, © 2014

See weather overviewHow to use our weather pages